Wind_Speed
1 1 1 1 2 2 2 3 4 4 5 5 6 6 6 7 7 8 9 10 9 10 9 10 11 13 14 13 14 13 12 13 14 13 13 15 17 18 19 20 21 21 20 19 19 20 20 20 20 19 19 18 18 18 18 18 17 16 16 14 12 12 12 12 11 10 9 9 10 10 9 9 10 12 13 11 10 11 10 8 7 7 6 6 6
2 3 2 3 3 4 3 3 4 5 5 6 6 7 7 8 8 9 10 11 12 12 12 11 12 13 15 15 14 13 12 13 15 15 15 17 18 20 22 22 22 22 21 20 20 20 22 22 21 21 20 19 18 17 18 19 19 18 17 15 13 12 13 13 12 10 10 9 10 11 10 10 10 10 13 13 12 12 11 9 9 8 7 7 7
4 4 4 3 4 4 3 3 4 5 4 4 5 6 6 6 7 8 9 10 11 11 12 12 12 13 16 16 16 14 13 13 14 16 18 19 21 22 23 22 21 22 23 23 22 22 23 24 24 23 23 22 19 17 18 20 20 20 19 16 14 14 13 14 13 11 10 10 10 11 11 11 11 11 12 13 13 13 13 11 10 9 9 8 7
5 5 5 5 5 4 4 4 4 4 3 2 3 4 5 5 5 6 7 8 8 9 11 12 12 12 14 16 17 17 17 17 17 18 19 20 21 22 23 22 22 22 23 24 24 24 24 24 24 25 25 23 20 19 19 21 20 20 19 18 16 16 14 14 14 12 11 11 10 11 12 12 12 12 12 12 14 14 13 14 13 11 10 9 9
6 6 6 5 5 5 4 3 2 2 2 2 3 3 4 4 4 5 6 7 8 8 9 10 11 11 11 14 16 18 19 19 20 20 20 21 21 22 23 24 24 23 23 23 24 24 24 23 24 25 25 24 23 23 22 21 20 20 20 19 18 17 15 14 15 13 11 11 11 11 13 13 13 13 13 13 14 14 14 15 15 13 12 11 10
6 6 6 6 5 5 4 3 3 3 3 3 3 2 2 3 3 4 5 7 7 8 8 8 9 10 10 11 13 15 17 18 19 19 19 20 21 22 22 23 24 24 24 23 23 24 23 23 23 23 24 25 25 26 26 23 21 21 20 20 20 18 17 14 14 14 13 12 11 12 13 13 14 13 13 14 14 14 15 15 17 16 14 13 12
6 6 7 7 6 5 5 4 4 3 3 3 2 2 2 3 5 5 5 6 7 8 9 9 9 9 9 10 11 12 13 15 16 16 16 17 17 17 18 18 19 20 21 22 23 23 23 22 22 22 22 24 24 25 26 25 23 22 21 21 22 20 18 15 14 14 14 13 12 12 13 14 14 14 14 14 14 15 16 16 17 18 16 15 14
7 6 7 7 6 5 5 5 4 3 2 2 3 3 2 4 6 7 7 8 8 9 9 9 9 9 9 9 9 10 11 11 12 12 12 13 13 13 14 14 15 16 17 18 19 20 20 21 21 21 21 22 22 23 24 26 25 24 22 22 23 21 18 17 16 15 15 15 13 12 13 14 15 15 15 15 15 15 16 15 17 20 18 17 17
7 6 7 7 7 6 6 5 3 3 3 3 4 3 3 4 6 8 9 9 9 10 10 10 10 8 8 8 8 9 9 9 9 9 9 9 10 10 11 12 14 15 15 16 16 17 18 19 19 19 20 20 21 21 22 23 26 25 24 24 23 21 20 20 19 17 16 16 15 13 13 14 16 16 15 16 16 16 15 15 17 20 20 19 19
6 6 6 7 7 7 6 5 4 4 4 4 4 4 5 6 7 9 9 10 10 11 11 10 10 9 8 8 8 8 8 8 7 7 6 6 8 9 10 11 12 13 14 14 15 16 17 17 17 18 18 19 20 20 20 21 23 25 26 26 23 22 23 22 21 19 17 17 16 15 13 14 16 16 15 16 16 16 16 16 17 20 22 21 20
6 6 6 7 7 7 7 5 5 6 5 5 5 6 7 9 9 9 9 10 11 12 12 11 11 11 10 9 9 8 7 6 6 6 5 5 8 10 8 8 10 11 12 14 14 15 16 17 17 17 18 18 19 20 20 20 21 24 26 25 23 24 25 23 22 21 19 17 17 17 14 13 14 15 15 15 16 17 17 18 17 19 22 23 22
7 7 6 7 8 7 6 6 6 7 6 6 7 9 9 10 11 10 9 10 11 12 12 13 12 11 11 10 9 9 7 6 7 7 5 7 9 8 6 6 7 9 9 11 12 14 15 17 18 18 18 18 19 20 20 21 21 22 25 24 24 26 26 24 24 24 21 19 18 18 16 14 13 14 15 16 16 16 18 19 18 19 21 23 24
8 8 8 7 7 7 6 6 6 7 7 9 10 11 12 11 11 11 10 10 11 13 13 13 14 12 11 9 8 9 7 6 8 8 6 9 8 6 7 6 6 7 8 8 9 11 12 14 15 17 17 17 18 19 19 20 20 20 21 22 23 25 26 26 25 25 24 21 20 19 18 17 15 14 14 16 16 16 18 19 19 20 21 22 23
9 9 9 8 7 7 6 6 6 8 10 11 12 12 13 12 11 11 11 10 11 13 14 13 13 13 12 11 9 8 7 6 8 7 7 7 7 7 9 9 9 9 9 8 7 8 10 11 13 14 15 16 16 17 18 18 19 18 18 19 21 23 25 25 25 25 25 24 22 21 20 19 18 16 15 16 17 17 17 19 20 20 20 20 20
9 8 7 7 8 7 7 7 8 10 11 12 13 13 13 13 13 11 11 10 10 12 14 14 14 14 12 11 10 9 9 8 9 6 7 7 7 8 10 10 10 11 10 10 9 9 11 11 13 14 15 16 15 16 17 17 17 18 17 18 19 21 23 24 25 26 26 25 23 23 23 22 21 20 18 17 18 18 17 19 21 21 21 20 21
8 6 6 7 9 9 8 9 10 11 13 13 14 14 14 14 14 13 12 11 10 11 13 14 16 15 11 9 10 9 10 10 12 12 9 8 9 10 12 11 9 11 11 11 11 11 12 12 13 14 15 16 15 15 15 15 19 21 19 17 17 20 22 23 25 27 27 26 25 25 25 24 24 23 22 21 20 20 19 19 21 22 22 22 23
7 6 7 9 10 10 10 11 12 13 14 15 15 15 16 16 15 15 15 14 13 12 13 14 14 13 12 10 8 7 10 16 20 19 11 10 15 17 16 14 12 14 14 14 14 13 13 13 15 16 16 16 17 17 15 15 20 21 19 17 19 21 23 22 24 28 27 24 24 27 26 26 27 27 26 25 23 22 21 20 21 23 24 23 24
9 9 9 10 11 12 13 13 13 14 15 16 16 16 16 17 17 17 17 16 15 14 14 14 12 11 11 9 6 6 13 18 19 20 19 18 18 18 18 19 18 19 20 19 18 16 15 15 16 17 17 18 18 18 17 18 18 14 13 15 18 20 22 22 23 26 27 24 24 28 28 27 29 29 29 28 25 23 23 22 22 23 25 25 25
10 11 11 12 13 14 14 15 15 16 17 17 17 17 17 17 17 18 17 17 16 15 13 13 12 11 10 9 9 8 11 14 14 18 23 24 23 21 21 22 21 20 21 21 20 19 16 14 15 17 17 18 18 18 18 19 16 11 10 11 12 15 18 20 21 22 25 24 24 27 28 28 30 31 31 30 29 27 25 24 23 23 25 26 26
12 13 14 14 14 15 15 16 16 17 18 18 17 17 17 17 17 16 15 14 13 11 10 10 9 9 9 9 10 10 10 11 10 11 14 20 28 28 25 23 20 19 19 19 19 17 14 13 14 16 18 16 16 17 17 18 16 13 12 11 11 13 14 17 19 19 21 22 22 25 26 28 30 31 32 32 31 30 27 26 26 25 25 26 27
14 15 16 16 16 16 16 16 16 16 17 17 16 15 14 13 12 11 10 9 8 8 8 8 8 7 7 6 6 6 7 8 8 8 8 14 22 26 27 26 23 21 20 20 19 16 13 13 13 16 19 17 15 15 16 16 15 14 14 13 12 13 14 16 17 18 17 18 19 20 23 25 27 29 32 33 32 31 29 28 28 27 25 26 27
14 16 16 16 16 16 16 15 14 14 14 14 12 10 8 8 7 7 7 6 7 7 7 8 8 7 7 6 5 4 5 6 7 8 8 11 16 21 25 27 27 26 23 21 21 18 15 14 14 17 20 19 17 15 14 14 14 14 14 14 13 13 14 16 17 18 17 14 13 13 17 22 24 27 31 33 34 32 30 30 30 28 27 27 27
14 15 15 15 15 14 14 12 10 10 10 9 7 5 4 5 5 5 6 6 7 7 8 7 6 6 6 6 7 7 7 8 10 11 11 11 14 17 20 23 25 25 24 22 21 19 17 16 15 17 20 21 20 19 17 16 15 15 16 15 15 14 14 15 16 17 18 16 13 10 12 17 22 26 29 32 33 33 32 32 31 30 29 28 28
13 13 13 12 12 11 10 8 7 7 6 5 4 3 3 4 4 4 5 6 6 7 7 6 6 6 6 7 7 7 8 10 11 12 11 11 13 16 18 21 23 23 22 22 20 18 17 17 17 17 18 19 20 20 21 21 20 20 21 20 19 18 17 17 17 18 18 18 18 15 13 13 18 23 27 29 32 33 35 34 32 32 32 30 30
11 10 10 9 8 8 7 6 5 5 5 4 3 3 3 3 3 4 5 5 5 6 5 5 5 6 6 7 8 9 10 11 12 12 12 12 14 16 18 20 22 23 23 22 22 20 18 17 18 19 18 18 19 20 20 21 22 23 25 25 24 24 23 21 21 21 20 19 19 19 17 15 14 18 23 28 30 31 35 37 35 34 34 33 33
9 9 8 7 7 6 6 5 4 4 4 3 2 2 2 2 3 3 4 4 4 5 5 5 6 6 7 9 10 11 12 12 13 13 13 14 15 17 19 20 21 22 22 22 23 23 21 21 22 21 21 20 21 21 20 20 21 22 24 26 26 26 27 27 26 25 24 22 22 21 20 19 17 15 17 22 28 31 34 36 36 36 36 35 35
8 8 7 6 6 6 6 4 3 3 3 2 1 1 2 2 2 2 3 3 4 4 5 5 6 7 9 11 11 12 13 14 14 15 15 15 15 16 17 20 22 23 24 22 22 23 24 26 25 24 24 24 23 23 23 22 21 22 23 24 26 25 26 28 28 28 27 25 24 23 22 22 21 18 16 17 21 28 34 36 37 39 39 36 35
9 8 7 7 7 6 5 4 3 3 2 1 1 1 1 1 1 2 2 3 4 5 5 5 6 8 11 12 12 13 14 14 14 14 15 15 16 16 17 19 20 23 26 26 26 25 26 28 28 26 27 27 26 25 25 24 23 22 22 23 25 25 25 26 27 28 28 27 26 25 24 23 22 21 20 18 16 20 26 33 37 40 40 38 35
10 10 8 8 7 6 5 4 3 2 2 2 1 1 1 1 1 2 2 4 5 5 5 5 7 10 12 12 12 14 14 14 14 15 15 16 17 18 18 18 17 17 20 25 28 28 27 29 29 30 29 28 28 28 26 26 25 24 23 23 24 25 25 25 25 26 27 27 26 26 25 25 24 22 22 22 18 16 19 27 37 40 40 40 38
11 10 9 7 6 5 4 3 3 2 2 2 3 3 3 2 2 2 3 4 5 5 5 6 9 11 11 12 12 14 14 14 14 15 15 16 17 18 18 18 17 15 13 17 24 27 27 27 28 30 31 29 29 29 28 26 26 25 25 24 24 24 25 25 25 25 25 25 25 26 26 26 25 23 23 23 22 19 16 21 30 38 39 40 40
11 10 8 7 6 4 3 3 3 3 3 3 4 4 4 3 2 3 3 4 5 5 6 8 10 11 11 11 12 14 14 14 14 14 15 17 17 19 19 18 18 16 14 14 19 24 27 27 28 29 30 29 29 30 30 28 27 27 26 26 25 24 25 24 24 24 24 24 25 26 27 26 24 24 25 25 23 22 18 16 22 30 38 41 40
11 10 8 7 6 4 4 3 3 3 3 3 4 4 3 3 3 3 4 4 5 6 9 11 12 11 11 11 13 14 14 14 14 15 16 18 19 20 20 19 19 18 17 15 17 23 26 27 28 30 30 30 29 30 32 30 30 29 28 28 28 28 26 25 24 24 24 24 25 26 27 27 25 24 25 26 26 24 23 20 19 23 32 41 43
11 9 7 6 6 5 4 4 4 4 3 3 3 3 2 3 4 4 5 5 6 9 11 13 13 12 12 12 14 15 16 16 17 18 19 20 21 21 20 20 21 21 21 20 17 22 26 27 28 31 32 32 31 32 34 34 33 33 32 30 30 30 30 28 26 25 24 25 26 26 26 27 26 25 25 26 27 26 25 26 25 21 23 33 41
10 8 6 6 6 6 5 5 4 4 3 3 3 2 2 3 4 5 5 5 8 11 13 13 14 13 13 14 15 17 18 18 20 21 21 22 22 22 22 23 24 23 23 22 20 21 26 29 30 33 34 35 35 35 37 37 37 38 37 35 33 32 31 31 30 27 25 25 27 27 27 27 28 27 26 25 26 27 26 26 29 27 23 25 33
9 7 6 6 6 6 6 5 5 4 4 3 3 2 2 2 4 5 5 6 9 12 12 13 14 13 13 16 18 20 20 21 22 22 22 23 23 23 23 24 24 24 23 23 23 23 26 29 31 33 35 36 37 37 38 39 40 40 41 40 38 36 33 33 33 30 27 26 27 27 27 27 28 29 28 27 26 27 27 27 28 30 29 25 27
8 7 7 7 6 6 6 6 5 5 5 4 3 2 2 2 4 5 5 7 10 12 13 14 15 15 17 20 22 22 22 22 22 22 22 22 22 23 23 23 24 25 25 25 26 26 28 31 32 32 33 34 35 37 38 40 41 41 42 42 42 41 37 35 34 33 30 28 27 27 28 27 28 29 29 29 28 27 27 29 29 29 31 30 26
8 8 8 7 7 6 6 6 6 6 6 5 4 3 3 3 4 5 6 9 11 12 13 16 16 18 21 24 23 22 21 22 22 22 22 22 23 24 24 24 25 25 26 27 28 29 30 32 32 32 33 34 35 36 38 41 44 44 44 44 44 43 42 39 37 36 34 31 29 28 28 28 27 28 29 30 30 29 29 29 29 30 31 32 29
8 8 8 8 8 7 6 7 7 6 6 6 5 4 3 4 4 5 7 11 12 12 13 16 18 21 23 24 23 21 21 21 22 23 23 24 25 26 26 26 25 25 27 29 31 32 32 33 33 34 35 35 36 38 40 41 43 45 47 47 46 44 45 45 43 39 38 36 34 31 29 28 28 27 28 30 31 32 31 29 29 30 30 32 34
9 9 8 8 8 8 7 8 7 7 7 7 5 4 4 4 5 6 9 12 13 13 15 17 20 22 23 22 22 21 19 20 22 23 24 24 25 26 27 27 26 26 28 31 32 34 34 35 35 35 37 37 38 39 41 42 41 42 44 48 50 48 47 49 49 45 43 41 38 35 32 30 29 28 28 29 30 32 32 31 31 31 30 31 34
10 10 9 9 9 9 9 8 8 8 7 6 6 5 4 5 6 7 10 12 12 13 15 17 19 21 22 21 22 20 17 18 20 22 24 25 25 26 26 27 28 28 29 31 32 33 34 36 36 37 37 39 40 41 43 44 44 44 44 45 48 49 50 52 52 50 48 47 43 40 36 34 32 31 29 29 30 31 32 32 33 32 31 31 33
12 11 11 10 10 9 9 9 9 8 7 7 6 5 4 5 7 8 9 10 10 11 13 14 16 19 21 21 22 19 16 16 18 20 22 23 25 26 27 28 29 30 30 31 32 33 34 35 37 38 38 39 42 43 44 45 44 45 45 44 44 46 48 52 53 50 48 48 48 45 41 38 37 34 32 31 30 30 32 33 34 34 33 32 33
12 12 12 11 11 10 10 9 9 9 8 7 6 6 6 6 7 9 9 8 7 8 11 12 13 16 19 21 21 19 15 16 18 20 21 22 23 24 25 27 28 30 31 31 31 32 33 35 37 38 38 39 41 43 44 44 44 44 44 44 43 43 45 50 55 52 47 45 49 50 46 42 40 37 33 31 29 29 31 33 33 35 35 34 33
14 13 12 12 12 11 10 10 9 9 9 8 7 6 6 7 7 9 9 6 5 6 8 10 12 15 18 20 21 18 16 17 18 20 21 21 22 23 24 25 26 28 29 30 31 32 32 34 36 37 38 39 41 42 43 44 44 44 44 43 42 41 41 44 49 52 49 46 49 52 49 44 42 40 35 31 29 27 29 32 32 34 37 36 34
15 14 13 13 13 12 11 10 9 10 9 9 8 7 7 7 7 7 7 6 5 6 7 8 10 14 16 18 19 17 16 17 19 21 22 22 23 24 24 25 25 26 27 28 29 31 31 32 34 35 36 38 40 42 44 45 46 45 43 42 40 39 38 38 42 48 50 48 47 50 51 46 42 41 37 31 27 26 25 27 29 31 36 38 35
15 14 14 13 13 12 11 10 9 10 9 9 8 7 6 6 5 5 4 4 4 5 4 5 8 12 14 17 17 15 15 17 19 21 23 23 23 24 24 24 25 26 27 28 29 29 28 29 31 33 35 36 39 41 43 44 46 45 43 41 39 38 37 37 41 46 47 45 43 45 49 47 40 39 38 31 25 24 22 21 24 28 32 36 37
15 14 14 13 13 12 11 10 9 9 9 9 8 6 5 4 4 3 2 1 2 2 2 2 5 10 14 16 15 14 15 16 19 21 23 23 23 24 24 24 26 28 31 31 31 29 26 26 28 31 33 35 37 40 42 43 43 44 43 41 40 39 38 38 41 43 42 41 39 38 44 46 40 38 39 32 26 25 23 21 21 24 29 33 35
15 14 14 13 12 12 11 10 9 9 10 9 8 6 5 3 3 2 2 2 1 1 1 1 4 10 14 15 14 13 14 16 18 20 22 23 24 24 24 25 27 30 33 33 31 28 25 24 26 30 33 35 37 39 41 42 43 42 41 41 40 40 40 39 41 42 41 40 36 34 41 44 39 37 38 32 28 27 24 22 21 22 26 30 33
15 14 13 12 12 11 11 10 8 8 10 10 8 6 5 3 3 3 4 3 2 2 2 3 7 11 13 14 14 14 13 15 17 18 20 22 24 24 25 27 28 31 33 33 30 25 23 23 25 28 32 35 37 39 40 42 43 43 42 41 40 39 39 38 38 40 40 40 37 33 37 40 36 35 36 32 30 30 26 22 21 21 24 28 31
15 14 14 13 12 11 11 10 9 9 10 10 8 7 5 4 3 4 5 4 2 2 4 6 9 11 13 14 16 16 15 14 16 18 19 21 23 25 26 28 29 31 34 33 29 24 23 23 24 27 32 35 37 39 41 42 44 43 42 42 40 38 38 38 37 38 38 39 37 30 29 33 33 33 34 33 33 33 29 24 21 19 21 25 28
17 16 14 14 13 12 11 11 10 9 9 10 9 7 6 5 3 3 4 4 2 2 4 6 8 11 14 15 15 17 18 16 15 17 19 21 23 24 26 27 29 32 35 33 29 26 26 26 26 28 32 36 39 41 42 44 45 44 42 41 40 38 38 38 39 39 40 38 32 25 25 29 30 30 31 33 35 34 29 24 18 13 13 17 22
18 17 15 15 14 13 12 11 11 10 9 10 9 8 7 6 5 4 4 3 2 1 2 5 9 12 14 14 15 16 18 17 16 16 18 21 24 24 25 26 29 33 34 31 28 28 29 29 30 31 34 37 41 43 45 45 46 47 44 41 40 39 37 38 39 39 41 39 29 22 25 29 29 29 28 29 33 34 30 24 18 11 8 10 15
Wind_Direction
321 358 36 32 3 343 335 354 356 350 346 344 348 349 338 328 325 318 310 305 303 305 300 288 283 285 290 292 296 298 295 289 288 289 284 283 285 285 286 289 291 290 290 293 297 300 302 303 304 304 304 304 304 307 312 315 316 317 318 317 313 312 310 309 308 299 289 276 259 249 246 239 225 213 206 203 202 201 200 199 199 196 191 187 185
270 292 304 302 306 307 302 308 304 307 312 313 318 319 313 309 307 305 300 297 295 296 296 288 276 273 278 282 286 293 294 287 284 285 283 282 285 286 287 291 290 286 285 286 289 293 295 298 299 300 300 300 299 300 305 309 310 310 312 314 312 312 308 305 306 299 288 278 263 249 243 242 235 224 213 207 205 202 200 201 200 198 196 193 192
229 246 252 257 261 263 258 254 254 264 280 285 294 297 291 290 293 297 296 293 292 291 292 289 280 272 270 273 276 280 283 278 274 274 279 283 286 286 289 294 293 288 285 284 285 287 290 294 296 298 297 296 293 291 296 300 302 304 305 307 309 311 309 303 300 297 288 280 268 252 242 240 240 235 223 213 210 207 203 204 201 200 200 198 196
217 224 227 237 244 241 224 217 229 251 285 286 274 275 272 277 288 299 302 301 301 298 293 289 287 278 268 270 274 277 280 278 276 276 279 285 288 289 292 296 296 293 290 287 287 288 290 293 295 297 296 294 289 286 290 292 295 298 298 300 303 308 309 302 295 293 287 281 271 256 245 239 238 239 232 221 216 211 206 206 204 203 202 201 198
215 218 222 227 225 218 207 204 205 231 264 261 246 245 254 268 284 298 302 302 302 300 296 292 292 287 278 275 276 280 282 281 281 282 285 289 291 293 295 296 295 294 294 292 291 292 294 295 295 296 295 294 292 290 290 285 286 291 293 293 296 301 306 300 292 290 286 281 273 258 249 242 239 238 234 229 225 218 210 207 206 204 203 203 202
212 218 218 208 198 196 193 196 195 200 211 228 244 244 256 279 299 306 302 300 300 299 296 293 290 288 285 284 284 286 287 286 286 288 291 292 292 294 294 295 294 293 293 292 292 294 296 296 296 296 295 295 293 292 291 283 279 284 287 287 289 294 299 296 290 288 283 281 276 261 250 244 241 239 235 231 230 226 216 208 205 205 204 205 204
206 209 205 193 188 188 185 194 200 207 206 213 249 279 294 307 313 311 308 306 306 303 301 297 293 290 291 292 294 294 292 292 293 295 297 296 297 300 301 301 300 298 296 294 293 294 295 296 297 297 296 296 294 291 290 287 281 279 281 283 283 286 291 289 285 286 280 277 277 266 252 244 243 242 239 233 231 229 221 210 206 206 205 207 206
203 205 200 192 193 191 189 197 204 224 223 228 266 279 292 312 311 309 311 312 310 308 305 302 300 299 299 300 299 300 302 302 301 302 302 301 305 309 313 315 314 310 306 303 301 300 299 298 298 298 297 298 298 296 294 292 287 281 278 278 276 274 279 280 278 284 280 273 272 268 256 246 244 244 243 238 232 231 224 211 208 207 206 208 208
201 203 199 196 204 206 205 209 213 231 234 241 262 270 288 306 305 306 310 310 309 303 298 297 300 300 299 301 302 305 314 314 309 308 308 311 315 316 317 320 320 318 316 314 312 309 307 304 303 302 302 301 302 302 298 294 290 285 279 274 269 264 269 272 272 278 277 271 267 266 262 251 245 242 245 244 235 231 226 213 209 207 205 208 210
200 202 200 201 213 215 214 219 222 230 232 237 255 281 300 306 303 306 308 305 300 294 294 296 297 295 297 306 307 311 319 315 310 308 311 324 325 317 317 323 328 330 329 327 323 319 315 313 312 310 310 310 309 308 303 297 292 287 280 275 270 265 265 264 268 274 274 270 265 261 261 255 249 242 242 246 240 232 226 217 213 210 206 207 211
206 208 207 209 212 212 215 223 226 227 232 244 265 287 297 302 300 301 303 300 295 295 299 300 298 296 301 312 310 309 312 301 289 284 283 312 320 317 322 336 341 343 342 338 336 332 328 325 324 320 317 316 315 314 311 306 301 294 287 281 275 270 266 259 259 264 268 270 264 259 257 254 251 245 240 243 242 234 226 221 217 213 209 207 210
208 209 211 211 209 212 217 222 231 240 257 277 291 295 296 296 293 290 292 293 292 296 299 298 298 298 300 307 307 301 295 278 262 252 262 305 314 310 318 335 342 340 337 337 340 341 341 340 338 335 329 324 321 320 317 314 309 303 299 292 283 276 269 261 255 255 260 266 263 257 253 251 249 246 241 240 242 237 228 224 220 216 212 209 211
206 210 211 212 214 220 219 221 242 267 289 301 303 300 297 295 292 292 295 294 293 293 293 295 298 298 296 296 298 294 285 263 245 246 277 301 296 287 298 305 306 310 312 320 332 337 339 339 338 338 334 330 328 327 325 321 315 307 302 297 290 283 273 264 257 254 256 261 259 254 251 249 247 247 244 240 241 240 231 226 224 219 213 212 213
206 209 210 217 225 231 235 246 272 291 300 301 298 294 293 293 294 298 302 302 299 295 295 298 300 305 305 302 301 290 273 248 235 257 295 285 275 289 293 291 292 298 301 298 302 311 314 314 317 321 323 323 323 325 326 327 325 318 307 299 294 290 282 271 265 261 259 258 254 251 251 251 246 244 245 242 242 243 237 229 225 221 215 213 215
206 203 208 223 235 243 257 277 291 296 295 293 291 289 290 292 295 298 301 301 301 299 301 302 301 306 309 309 310 297 280 249 224 258 297 269 269 297 292 291 299 301 303 294 285 289 297 307 319 320 318 316 315 317 319 323 327 322 314 306 299 295 290 280 272 268 263 259 255 251 251 252 249 244 241 240 242 243 241 234 226 222 217 215 216
208 211 229 243 251 261 274 286 289 289 288 285 285 287 289 293 296 297 296 294 293 294 296 298 300 305 309 309 309 303 297 283 275 292 293 258 271 295 292 294 299 296 298 298 295 298 303 316 326 324 317 311 310 310 312 321 322 316 312 308 301 294 290 286 280 274 267 262 258 255 253 252 251 249 243 237 237 240 242 238 230 224 219 217 219
229 247 259 263 271 280 286 287 284 282 281 281 283 286 289 292 295 296 296 295 293 291 291 292 296 303 307 310 307 304 304 303 305 305 291 267 281 292 291 292 297 295 295 296 297 302 308 314 313 310 310 309 309 306 304 318 323 318 315 311 304 297 291 288 286 282 276 267 261 259 257 253 250 250 250 242 233 235 239 238 234 227 220 218 221
252 262 268 275 283 288 290 288 284 281 279 281 284 287 289 291 293 295 295 296 294 291 289 287 287 289 295 302 298 296 299 301 305 300 293 291 289 290 290 292 297 297 297 298 297 300 307 309 306 302 303 305 308 310 306 309 315 320 323 320 315 309 303 297 290 284 280 271 263 262 260 257 254 251 253 250 240 234 234 235 235 232 224 219 221
263 270 276 280 283 286 287 286 285 282 279 280 284 287 289 292 293 294 294 295 294 292 287 282 280 276 273 270 264 268 283 291 295 296 297 297 291 292 295 296 301 301 301 303 302 307 310 306 303 299 296 299 305 310 312 309 309 313 318 314 308 305 305 303 296 288 283 274 264 262 259 257 255 252 251 252 249 241 234 232 233 233 228 223 222
269 275 279 281 282 283 283 283 283 281 280 280 282 286 290 293 293 294 296 298 299 299 296 294 292 284 276 266 260 261 267 275 284 291 297 295 292 295 298 299 305 308 309 310 310 318 318 305 304 299 292 294 299 301 304 307 308 309 307 302 297 293 294 297 294 290 292 291 278 266 261 258 255 253 252 252 251 247 239 231 229 230 228 225 223
268 272 276 278 280 281 280 281 281 279 279 280 282 287 291 293 291 290 295 300 308 313 319 328 329 323 314 299 276 264 261 264 274 284 293 298 298 300 303 304 307 310 314 314 314 324 322 304 301 299 292 290 293 293 294 298 302 304 301 298 296 294 293 293 291 287 292 304 301 283 271 264 258 254 254 251 249 248 244 236 228 227 227 227 225
266 271 274 276 277 277 278 279 278 277 277 278 283 289 293 292 285 284 293 303 317 329 338 347 345 338 336 333 329 321 305 301 307 310 308 307 306 305 308 311 311 313 319 320 320 324 321 305 295 294 291 290 291 289 287 291 296 299 297 295 293 292 291 290 292 291 289 298 311 307 289 274 261 252 250 250 249 249 249 241 230 225 225 227 228
269 273 273 273 272 272 273 272 271 271 269 273 280 283 287 285 279 284 299 312 327 338 347 354 349 341 341 343 349 352 346 343 342 336 329 323 317 312 313 315 314 317 322 326 326 326 323 314 302 297 295 294 296 293 288 286 287 290 290 290 292 294 294 293 296 298 294 291 291 297 296 280 266 255 248 246 247 248 248 243 234 228 224 224 228
272 272 269 266 264 262 261 255 251 252 256 264 265 269 284 288 291 300 310 322 336 343 348 352 347 342 344 345 346 343 341 343 339 332 329 327 322 318 319 321 321 323 327 330 330 332 332 325 318 315 310 304 303 301 295 288 283 283 284 283 285 289 291 291 295 298 299 296 289 284 289 283 270 262 253 248 246 243 240 240 240 237 228 222 224
268 262 254 248 243 240 237 231 227 238 253 265 271 282 295 303 314 318 322 337 349 349 349 352 349 347 347 345 344 342 342 343 341 335 332 330 326 325 328 330 328 328 332 334 334 337 339 337 334 332 328 321 316 312 306 299 291 285 283 281 280 282 284 284 286 290 293 295 293 288 285 280 269 265 260 254 250 244 237 238 242 238 230 223 221
256 239 228 222 219 216 216 219 223 237 255 270 285 293 297 312 328 330 341 1 5 356 360 5 358 352 350 350 352 353 355 356 355 354 351 348 344 341 338 336 333 332 336 338 341 343 342 343 345 342 336 332 329 323 317 311 304 296 289 284 280 278 279 280 280 282 285 287 289 287 283 277 269 271 273 264 256 248 239 237 239 235 231 228 222
239 219 211 208 208 206 209 214 222 235 245 261 281 292 303 320 339 350 14 23 8 3 8 6 359 356 355 356 358 2 8 9 9 11 9 5 2 357 351 347 344 340 340 341 346 350 346 343 344 345 342 338 335 331 325 321 315 306 300 293 288 281 277 276 276 277 279 279 280 281 280 277 271 268 273 274 268 257 244 237 236 236 236 234 228
220 208 205 202 200 201 205 208 211 222 229 240 262 285 314 344 23 30 39 25 6 7 6 358 359 1 1 3 6 14 20 21 20 19 18 14 11 8 6 5 358 349 344 344 348 351 349 345 341 343 345 341 338 335 330 327 322 315 309 303 298 292 283 277 274 274 274 273 272 272 272 273 271 266 263 266 276 276 256 239 233 235 238 238 235
210 209 204 195 194 196 197 199 200 209 219 219 210 163 119 87 80 56 43 23 9 12 11 7 10 9 9 15 21 26 27 25 21 19 18 17 15 13 12 13 12 3 350 344 346 348 348 346 342 339 342 343 339 337 335 332 329 325 318 312 307 302 295 288 281 276 273 270 268 267 264 263 265 265 263 260 261 274 274 253 236 231 236 239 238
205 206 197 186 186 187 188 195 199 204 208 187 155 136 127 115 92 59 43 23 12 20 25 22 23 20 21 28 30 29 26 21 20 19 18 16 15 16 14 11 12 13 359 341 341 346 345 344 346 342 341 343 341 338 337 336 334 330 325 319 313 307 302 297 292 285 279 273 268 265 261 258 260 262 261 260 256 254 271 274 251 234 234 237 237
197 196 187 177 176 177 182 197 200 193 183 160 144 135 128 112 82 62 51 28 17 30 33 34 38 35 33 35 31 29 26 23 21 19 18 18 17 15 14 11 9 10 8 347 336 343 347 345 347 348 345 344 343 341 339 338 337 334 329 323 318 312 306 300 296 292 287 279 271 265 263 260 260 260 257 256 256 250 250 269 268 250 240 237 236
189 189 183 173 170 171 173 183 185 176 162 142 133 131 128 113 87 71 58 39 31 43 47 51 53 45 37 36 33 32 29 24 24 23 21 21 20 19 16 12 11 11 14 5 341 341 350 348 346 350 349 347 347 346 342 339 338 335 331 327 322 318 313 306 300 295 291 286 278 271 267 264 261 260 258 254 253 252 248 246 256 261 252 242 237
187 184 178 170 165 163 162 166 168 163 149 123 111 112 120 109 95 80 63 48 46 54 57 59 57 49 42 39 37 35 31 27 28 27 25 24 22 21 18 15 17 19 19 15 356 342 346 349 348 350 351 350 350 350 346 342 340 338 335 330 325 320 318 314 307 301 295 291 286 279 272 267 264 260 257 256 252 251 251 245 242 249 258 252 242
184 177 172 167 160 157 156 157 155 147 134 115 106 116 124 111 100 88 70 55 56 58 58 58 55 49 43 40 39 36 32 29 30 28 26 26 23 20 20 19 19 21 20 16 5 349 344 348 350 351 352 352 350 349 347 343 341 339 337 333 330 325 321 318 313 308 303 296 291 286 280 273 268 263 258 256 255 252 251 249 244 241 245 254 250
174 167 165 160 153 149 148 148 146 141 134 126 124 136 144 127 103 88 69 58 62 60 56 55 52 44 39 39 38 36 32 30 30 30 27 25 22 20 20 21 19 18 19 17 12 2 353 353 355 353 352 351 348 347 346 343 340 338 336 335 333 330 326 322 317 311 307 303 296 291 287 280 273 268 262 258 256 255 254 250 247 243 239 243 250
167 163 158 151 145 140 138 139 142 146 145 142 142 147 147 125 100 86 67 63 69 66 56 51 46 39 37 37 35 32 32 31 30 31 29 25 23 20 18 19 19 18 18 18 16 10 1 357 356 354 351 349 346 346 345 341 338 337 336 334 332 331 329 326 322 317 312 307 302 296 292 287 280 273 267 262 258 256 255 252 247 244 240 238 243
168 163 155 146 138 134 134 136 142 151 151 147 146 143 129 102 89 81 69 70 75 71 58 48 42 39 36 33 30 29 29 30 31 31 29 25 22 20 17 16 18 21 22 19 17 12 4 358 354 352 351 350 347 348 347 343 340 338 336 333 331 330 328 326 324 322 318 312 307 301 295 290 286 279 272 265 261 258 255 254 250 246 242 237 236
168 159 152 144 137 136 139 139 144 150 148 143 139 130 109 87 78 73 75 79 78 71 57 45 39 37 33 29 28 27 27 29 31 30 28 25 22 20 18 16 17 22 23 20 16 12 8 3 356 352 352 352 349 348 347 346 342 339 337 333 330 329 327 325 323 323 322 317 312 307 301 295 289 284 276 268 263 259 255 254 253 249 245 239 234
161 154 150 146 142 143 145 144 146 146 143 139 132 122 105 90 81 80 87 88 78 64 52 42 36 33 28 26 27 28 28 30 31 29 26 24 22 20 19 18 19 21 20 17 14 11 8 5 0 355 353 352 350 348 347 347 344 341 338 333 329 328 326 323 322 323 323 321 317 313 309 303 295 289 282 272 265 261 257 252 252 250 248 244 238
158 153 150 149 147 148 147 145 144 141 137 132 125 116 106 98 88 84 91 88 73 56 45 38 33 28 21 21 27 31 32 33 33 31 27 24 23 22 21 20 19 18 16 14 11 8 5 3 359 355 352 351 350 348 347 348 345 342 340 334 328 325 324 322 321 322 324 323 321 317 313 310 304 296 289 280 269 263 258 252 249 250 248 246 242
159 153 152 152 151 149 146 144 141 136 131 129 126 121 115 108 92 83 86 82 67 50 39 34 28 21 14 16 24 32 36 36 37 35 32 29 26 23 21 19 16 14 12 11 9 5 2 359 356 353 351 350 349 348 347 347 344 340 338 334 327 323 321 319 319 321 323 323 322 319 315 313 309 300 293 286 275 265 260 254 249 248 248 246 244
160 155 155 154 151 149 145 142 138 135 132 130 129 128 125 116 97 86 83 78 65 48 36 29 20 13 10 12 20 28 34 37 37 36 34 32 28 25 22 18 14 11 8 7 6 3 359 356 355 352 348 347 349 348 345 343 341 337 336 333 328 324 321 319 319 321 323 323 320 316 312 312 311 304 295 288 281 270 262 256 249 246 246 246 243
160 157 157 154 151 148 143 140 138 135 133 128 126 129 130 125 108 96 91 82 67 53 38 26 14 9 9 12 15 19 28 35 34 33 32 30 27 25 22 18 14 10 7 4 2 360 356 354 353 352 348 345 347 347 345 342 339 337 335 333 329 325 322 320 318 319 321 322 318 313 310 311 311 307 300 292 287 280 268 259 251 245 244 245 242
160 157 158 154 151 146 142 143 141 135 128 123 123 128 132 132 123 109 102 89 69 56 39 20 10 6 8 14 14 15 25 32 30 29 28 26 24 22 19 15 11 8 6 2 359 357 355 353 353 353 351 346 345 347 346 342 339 337 334 331 329 324 320 317 313 313 317 320 316 311 308 309 310 307 303 298 294 289 277 263 254 245 242 243 241
160 157 158 155 149 144 140 139 136 129 121 118 119 122 126 129 125 117 113 93 69 66 54 18 2 359 7 16 17 20 30 30 24 22 22 21 20 17 14 10 7 4 0 358 357 356 355 354 352 353 354 350 346 346 346 344 340 337 334 330 328 323 318 316 313 312 317 319 316 311 307 306 309 307 304 304 302 296 287 271 257 247 242 241 240
162 159 158 154 147 140 136 133 130 124 118 113 113 115 119 124 122 126 140 126 79 73 69 20 346 353 7 17 21 29 36 28 19 16 17 18 15 9 7 4 1 1 358 355 356 356 355 355 354 355 358 357 351 348 348 346 342 339 335 330 327 323 318 317 317 317 319 320 318 312 304 305 309 306 303 306 309 304 297 285 268 254 245 240 238
164 161 156 151 144 137 132 130 129 126 117 108 105 106 111 121 137 166 208 214 222 349 28 17 348 359 11 20 27 35 36 25 16 11 12 16 12 3 359 358 357 358 356 354 355 356 354 355 358 360 2 1 358 354 352 350 346 342 338 332 329 326 321 319 319 321 320 320 319 310 301 304 308 303 303 308 309 305 302 295 281 263 249 243 237
166 162 152 145 140 135 132 131 132 128 117 107 102 99 98 113 150 192 219 234 264 312 357 4 2 11 22 29 33 34 28 20 14 9 8 11 7 359 355 354 353 354 355 355 357 357 353 353 357 2 4 3 2 360 358 355 351 346 341 337 334 329 324 320 320 321 320 318 319 313 303 304 308 306 307 310 307 304 304 300 289 271 254 245 238
161 157 149 142 137 134 134 133 132 127 116 106 99 91 86 92 130 184 208 226 262 322 354 0 10 29 41 39 33 28 22 15 10 7 5 3 1 356 353 352 351 352 355 356 358 357 354 353 355 0 4 4 4 4 3 1 357 351 344 341 338 334 330 327 324 322 319 317 321 322 311 305 307 308 308 306 302 302 305 305 297 280 260 247 240
158 156 151 144 138 137 137 134 128 121 111 103 94 85 78 77 94 155 190 208 242 322 356 15 38 53 52 42 33 26 22 16 8 5 3 360 358 356 353 350 351 353 355 356 357 356 355 356 357 360 3 5 5 6 6 4 2 358 350 343 340 339 337 333 329 326 323 320 325 330 316 304 303 303 302 301 299 299 303 307 303 286 261 245 237
158 155 151 146 142 140 136 129 122 116 107 101 95 86 77 73 81 106 131 151 163 54 44 60 63 60 52 42 33 27 24 20 12 6 5 4 2 360 354 351 352 354 355 355 355 355 356 359 2 3 5 6 7 8 8 7 5 3 358 351 347 345 341 336 334 331 325 323 330 332 316 305 301 300 299 300 301 300 301 305 304 290 266 246 233
Height
1559 1560 1560 1561 1561 1561 1561 1561 1561 1560 1560 1560 1560 1560 1560 1560 1560 1560 1561 1561 1561 1561 1561 1561 1561 1560 1559 1559 1559 1558 1558 1558 1557 1557 1558 1557 1557 1556 1556 1555 1554 1553 1552 1551 1550 1549 1548 1547 1547 1546 1545 1544 1543 1542 1541 1540 1539 1539 1538 1537 1536 1535 1534 1533 1532 1532 1531 1531 1531 1531 1531 1531 1531 1532 1532 1533 1534 1535 1535 1536 1536 1536 1537 1537 1537
1559 1559 1560 1560 1560 1560 1560 1561 1560 1560 1560 1559 1559 1559 1559 1559 1559 1560 1560 1560 1560 1560 1560 1560 1560 1559 1559 1558 1558 1558 1557 1557 1557 1557 1556 1556 1556 1555 1554 1553 1553 1552 1551 1550 1550 1548 1547 1546 1545 1544 1543 1542 1541 1540 1539 1538 1537 1537 1537 1536 1535 1535 1534 1533 1532 1531 1531 1530 1530 1530 1530 1530 1530 1531 1531 1532 1532 1534 1534 1535 1536 1536 1536 1536 1537
1559 1559 1559 1560 1560 1560 1560 1560 1560 1560 1560 1560 1559 1559 1559 1559 1559 1559 1559 1559 1559 1559 1559 1559 1559 1558 1558 1557 1557 1557 1557 1557 1557 1556 1556 1555 1554 1554 1553 1552 1551 1550 1549 1549 1548 1547 1546 1545 1544 1543 1541 1540 1539 1538 1537 1537 1536 1535 1535 1535 1535 1534 1533 1532 1531 1530 1530 1529 1529 1529 1529 1529 1529 1530 1530 1530 1531 1532 1533 1534 1535 1535 1536 1536 1536
1558 1558 1558 1559 1559 1559 1559 1559 1559 1559 1559 1559 1559 1559 1558 1558 1558 1558 1557 1558 1558 1558 1558 1557 1557 1557 1557 1556 1556 1556 1556 1556 1556 1555 1555 1554 1553 1552 1551 1550 1549 1549 1548 1547 1546 1546 1545 1544 1543 1541 1540 1538 1537 1536 1535 1535 1534 1534 1533 1533 1533 1533 1532 1532 1531 1530 1529 1528 1528 1528 1527 1527 1528 1528 1529 1529 1530 1531 1532 1533 1534 1534 1535 1535 1536
1557 1557 1557 1558 1558 1558 1559 1559 1558 1558 1558 1558 1558 1558 1557 1557 1557 1557 1557 1557 1557 1557 1556 1556 1556 1555 1555 1555 1555 1555 1554 1554 1554 1553 1553 1552 1552 1551 1550 1549 1548 1547 1546 1545 1545 1544 1543 1542 1541 1540 1538 1537 1536 1534 1533 1533 1532 1532 1532 1531 1531 1531 1531 1531 1530 1529 1528 1528 1527 1527 1526 1526 1526 1527 1528 1528 1529 1530 1531 1532 1533 1533 1534 1535 1535
1556 1556 1557 1557 1557 1558 1558 1558 1558 1558 1557 1557 1557 1557 1557 1556 1556 1556 1556 1556 1556 1556 1555 1555 1554 1554 1554 1554 1554 1553 1553 1552 1552 1552 1551 1551 1550 1549 1548 1547 1546 1545 1545 1544 1543 1542 1542 1541 1540 1539 1537 1535 1534 1533 1532 1531 1531 1531 1530 1530 1529 1530 1530 1529 1529 1528 1527 1527 1526 1526 1525 1525 1525 1526 1526 1527 1528 1528 1529 1530 1531 1532 1533 1534 1534
1555 1556 1556 1557 1557 1558 1558 1558 1558 1557 1556 1556 1557 1556 1556 1556 1555 1555 1555 1555 1555 1555 1554 1554 1553 1553 1553 1553 1552 1552 1552 1551 1550 1550 1550 1549 1548 1547 1547 1546 1545 1544 1543 1542 1542 1541 1540 1539 1538 1537 1536 1534 1533 1531 1530 1529 1529 1529 1529 1528 1527 1527 1528 1528 1528 1528 1527 1526 1525 1525 1524 1524 1524 1524 1525 1525 1526 1527 1527 1529 1530 1531 1532 1533 1533
1555 1555 1555 1556 1556 1557 1557 1557 1557 1556 1556 1556 1556 1556 1555 1555 1554 1554 1554 1554 1554 1554 1554 1553 1552 1552 1552 1552 1551 1551 1550 1550 1549 1549 1548 1547 1547 1546 1545 1544 1543 1542 1542 1541 1540 1540 1539 1538 1537 1536 1534 1533 1531 1530 1529 1528 1527 1527 1527 1526 1525 1525 1525 1526 1526 1526 1526 1525 1524 1524 1523 1523 1523 1522 1523 1524 1525 1525 1526 1527 1529 1530 1531 1532 1532
1554 1554 1555 1556 1556 1556 1557 1556 1556 1556 1556 1556 1555 1555 1554 1553 1553 1553 1554 1554 1553 1553 1552 1552 1551 1551 1551 1551 1550 1550 1550 1549 1549 1548 1547 1546 1546 1545 1544 1543 1542 1541 1541 1540 1539 1538 1538 1536 1535 1534 1533 1532 1530 1529 1528 1527 1526 1525 1525 1524 1523 1523 1523 1523 1524 1524 1524 1524 1523 1523 1522 1522 1521 1521 1521 1522 1523 1524 1524 1526 1527 1528 1529 1530 1531
1553 1554 1554 1555 1556 1556 1555 1555 1555 1555 1555 1555 1554 1553 1552 1552 1553 1553 1553 1553 1552 1551 1551 1551 1551 1550 1550 1550 1549 1549 1549 1548 1548 1547 1546 1545 1544 1543 1543 1542 1541 1540 1540 1539 1538 1538 1537 1535 1534 1533 1531 1530 1529 1528 1527 1526 1525 1523 1522 1521 1522 1522 1521 1521 1522 1522 1522 1522 1522 1521 1521 1521 1520 1520 1520 1520 1521 1522 1523 1524 1525 1526 1527 1529 1529
1553 1553 1554 1555 1555 1555 1554 1553 1554 1555 1554 1553 1552 1552 1552 1552 1553 1553 1553 1552 1551 1550 1550 1550 1550 1550 1549 1549 1549 1548 1548 1548 1547 1546 1545 1544 1543 1542 1542 1541 1540 1539 1539 1538 1537 1537 1536 1534 1533 1531 1530 1529 1527 1526 1525 1524 1523 1522 1520 1519 1519 1519 1518 1519 1520 1520 1520 1520 1520 1520 1520 1519 1519 1519 1519 1519 1519 1520 1521 1522 1523 1524 1525 1527 1528
1552 1552 1553 1554 1553 1553 1553 1553 1554 1554 1553 1552 1551 1551 1552 1552 1553 1553 1552 1551 1550 1549 1549 1549 1549 1549 1549 1549 1548 1548 1547 1547 1546 1545 1544 1543 1543 1541 1541 1540 1539 1538 1537 1536 1536 1535 1534 1533 1532 1530 1529 1528 1526 1525 1523 1522 1521 1519 1518 1516 1516 1516 1515 1516 1517 1517 1517 1517 1518 1518 1518 1518 1518 1518 1517 1517 1517 1518 1519 1520 1521 1522 1523 1525 1526
1552 1552 1553 1553 1552 1553 1553 1554 1553 1552 1551 1550 1550 1551 1552 1552 1552 1552 1551 1551 1549 1549 1548 1548 1548 1548 1549 1549 1548 1547 1546 1546 1545 1545 1544 1543 1542 1541 1540 1538 1537 1537 1536 1535 1534 1533 1532 1531 1530 1528 1527 1525 1524 1523 1522 1520 1519 1518 1516 1514 1514 1513 1513 1513 1514 1514 1515 1514 1515 1515 1515 1516 1516 1516 1516 1516 1516 1516 1517 1518 1519 1520 1521 1522 1524
1551 1552 1552 1552 1552 1553 1553 1552 1551 1550 1549 1550 1550 1551 1551 1552 1552 1551 1550 1549 1549 1548 1548 1548 1548 1547 1548 1547 1547 1546 1545 1545 1544 1544 1543 1542 1541 1540 1539 1538 1537 1536 1535 1534 1532 1531 1530 1529 1527 1526 1524 1523 1521 1520 1519 1518 1517 1516 1515 1514 1512 1512 1511 1511 1511 1511 1512 1511 1512 1513 1513 1513 1514 1515 1515 1515 1515 1515 1515 1516 1517 1518 1519 1520 1522
1551 1551 1551 1552 1552 1552 1552 1550 1549 1549 1550 1550 1551 1551 1551 1550 1550 1550 1549 1549 1548 1547 1547 1547 1547 1547 1547 1547 1546 1546 1544 1544 1543 1543 1542 1541 1540 1539 1537 1537 1536 1534 1533 1532 1531 1530 1528 1527 1526 1524 1522 1520 1518 1517 1515 1514 1514 1514 1513 1512 1511 1510 1510 1510 1508 1508 1508 1509 1510 1511 1511 1511 1512 1512 1513 1513 1513 1513 1513 1514 1515 1516 1517 1518 1520
1551 1551 1551 1552 1552 1551 1550 1549 1549 1550 1550 1551 1551 1550 1550 1549 1549 1549 1548 1548 1548 1548 1547 1546 1546 1546 1547 1547 1546 1545 1543 1542 1541 1541 1541 1540 1539 1538 1536 1535 1535 1533 1532 1531 1530 1529 1528 1526 1524 1522 1520 1518 1516 1514 1513 1511 1510 1510 1510 1509 1508 1507 1507 1507 1506 1504 1505 1508 1509 1509 1508 1509 1509 1510 1510 1511 1511 1511 1512 1512 1513 1514 1515 1516 1517
1551 1551 1551 1551 1551 1550 1549 1549 1550 1550 1551 1551 1550 1550 1549 1548 1548 1547 1547 1548 1548 1548 1547 1546 1546 1546 1546 1546 1545 1544 1542 1541 1539 1537 1538 1538 1537 1536 1535 1534 1533 1532 1530 1530 1529 1528 1527 1525 1523 1520 1518 1516 1514 1512 1510 1509 1507 1507 1507 1506 1505 1504 1504 1504 1503 1502 1502 1506 1507 1505 1506 1506 1506 1507 1507 1508 1508 1509 1509 1510 1511 1512 1513 1514 1515
1551 1551 1551 1551 1550 1549 1549 1550 1550 1551 1551 1550 1550 1549 1548 1547 1547 1546 1546 1547 1547 1547 1546 1546 1546 1545 1545 1545 1545 1544 1542 1540 1539 1536 1534 1535 1534 1534 1533 1532 1532 1531 1529 1528 1527 1527 1526 1524 1520 1518 1517 1514 1512 1510 1509 1507 1505 1504 1503 1503 1502 1501 1501 1501 1500 1499 1500 1504 1505 1503 1503 1505 1504 1504 1504 1505 1506 1506 1507 1508 1509 1510 1511 1512 1513
1550 1550 1550 1550 1549 1549 1549 1550 1550 1551 1550 1550 1549 1548 1547 1546 1546 1545 1545 1545 1545 1545 1545 1545 1545 1545 1545 1545 1544 1544 1542 1540 1540 1537 1534 1532 1531 1531 1531 1530 1530 1529 1528 1527 1525 1525 1524 1521 1518 1516 1515 1513 1510 1509 1507 1505 1503 1501 1500 1499 1498 1497 1497 1497 1496 1496 1496 1500 1502 1500 1500 1501 1501 1501 1502 1502 1503 1504 1505 1505 1506 1507 1508 1509 1511
1550 1550 1549 1549 1549 1549 1549 1550 1550 1550 1549 1548 1548 1547 1546 1546 1545 1545 1544 1544 1544 1544 1544 1544 1544 1544 1544 1543 1543 1542 1541 1540 1539 1539 1537 1533 1529 1528 1528 1528 1529 1528 1527 1525 1524 1523 1521 1518 1516 1514 1512 1510 1509 1507 1506 1503 1501 1500 1498 1497 1496 1495 1494 1493 1492 1493 1493 1495 1498 1498 1497 1497 1499 1501 1501 1501 1501 1502 1502 1503 1504 1504 1505 1506 1508
1549 1549 1549 1549 1549 1549 1549 1549 1549 1549 1548 1547 1547 1546 1546 1545 1545 1545 1545 1544 1544 1544 1544 1544 1543 1543 1542 1542 1542 1541 1540 1540 1539 1538 1537 1534 1530 1527 1525 1524 1525 1525 1525 1524 1522 1522 1519 1517 1515 1512 1509 1508 1507 1505 1503 1501 1499 1498 1497 1496 1495 1493 1492 1491 1490 1489 1489 1490 1493 1495 1495 1494 1496 1498 1498 1497 1498 1499 1500 1501 1501 1502 1503 1504 1504
1548 1548 1548 1549 1549 1549 1548 1549 1548 1547 1547 1546 1546 1546 1546 1546 1545 1545 1545 1545 1545 1544 1544 1544 1543 1542 1541 1541 1540 1540 1539 1538 1537 1537 1536 1534 1532 1529 1526 1523 1521 1521 1522 1521 1520 1519 1517 1515 1513 1510 1507 1506 1505 1503 1501 1499 1497 1496 1494 1494 1493 1492 1491 1490 1489 1487 1486 1486 1487 1489 1491 1490 1491 1491 1491 1492 1494 1495 1497 1497 1498 1499 1500 1501 1501
1548 1547 1548 1548 1548 1548 1548 1548 1548 1547 1546 1546 1546 1546 1546 1546 1546 1546 1546 1545 1545 1545 1545 1544 1543 1541 1541 1540 1539 1539 1538 1537 1536 1535 1534 1533 1531 1529 1527 1524 1522 1520 1519 1519 1518 1517 1515 1513 1511 1508 1506 1504 1502 1501 1499 1497 1495 1494 1492 1491 1491 1490 1489 1488 1487 1485 1484 1484 1484 1484 1486 1486 1485 1486 1487 1488 1489 1490 1492 1493 1494 1495 1496 1498 1499
1547 1547 1547 1547 1547 1548 1548 1548 1547 1546 1546 1546 1547 1547 1547 1547 1547 1547 1546 1546 1546 1545 1544 1543 1542 1541 1540 1540 1540 1539 1538 1537 1536 1535 1533 1532 1530 1528 1526 1523 1521 1519 1518 1517 1516 1515 1513 1511 1509 1507 1505 1502 1500 1498 1496 1495 1493 1491 1489 1488 1488 1487 1486 1485 1484 1484 1483 1482 1482 1481 1482 1482 1481 1482 1484 1485 1485 1486 1488 1489 1491 1492 1493 1494 1495
1547 1547 1547 1547 1548 1548 1548 1548 1547 1547 1547 1547 1548 1548 1548 1548 1547 1547 1547 1546 1546 1545 1544 1543 1542 1541 1541 1541 1540 1539 1538 1537 1536 1534 1533 1531 1529 1527 1525 1523 1521 1518 1517 1515 1513 1512 1511 1510 1507 1505 1503 1500 1498 1496 1494 1492 1490 1489 1486 1485 1484 1483 1482 1482 1482 1481 1481 1480 1480 1479 1479 1479 1478 1477 1479 1481 1482 1482 1483 1484 1486 1488 1489 1490 1491
1547 1547 1548 1548 1548 1548 1548 1548 1548 1548 1548 1548 1548 1548 1548 1548 1548 1547 1546 1546 1545 1544 1543 1543 1543 1542 1542 1541 1540 1539 1538 1537 1536 1534 1532 1530 1528 1526 1524 1522 1521 1518 1516 1514 1512 1510 1508 1507 1505 1503 1500 1498 1496 1493 1491 1489 1487 1485 1483 1481 1481 1480 1479 1478 1478 1478 1478 1477 1477 1476 1475 1475 1475 1474 1473 1476 1478 1478 1478 1480 1481 1483 1484 1486 1487
1547 1547 1548 1548 1548 1548 1548 1548 1548 1548 1548 1549 1549 1549 1549 1548 1548 1547 1547 1546 1545 1544 1544 1544 1543 1543 1542 1542 1541 1539 1538 1536 1535 1534 1532 1530 1528 1527 1524 1521 1519 1517 1514 1513 1511 1509 1506 1504 1502 1501 1498 1496 1494 1491 1488 1487 1484 1482 1480 1478 1477 1477 1476 1475 1474 1474 1473 1473 1473 1473 1472 1472 1471 1471 1470 1470 1472 1473 1474 1476 1477 1479 1480 1481 1483
1546 1547 1548 1548 1549 1549 1549 1549 1549 1549 1549 1549 1549 1549 1549 1549 1548 1547 1546 1546 1545 1545 1544 1544 1544 1544 1543 1542 1541 1539 1538 1537 1535 1534 1532 1531 1529 1527 1525 1523 1520 1517 1513 1510 1508 1507 1505 1502 1499 1497 1496 1494 1491 1489 1486 1484 1482 1480 1478 1476 1474 1473 1472 1471 1470 1470 1469 1469 1469 1469 1469 1468 1467 1467 1466 1466 1466 1468 1470 1472 1474 1474 1476 1477 1479
1547 1547 1548 1549 1549 1549 1550 1550 1549 1550 1550 1550 1550 1550 1549 1549 1548 1547 1547 1546 1546 1546 1545 1545 1545 1545 1544 1542 1541 1540 1538 1537 1535 1534 1532 1531 1529 1527 1525 1523 1522 1520 1517 1513 1508 1506 1504 1501 1498 1494 1493 1492 1489 1487 1484 1482 1480 1477 1475 1474 1471 1469 1468 1467 1467 1466 1465 1465 1465 1465 1464 1463 1463 1462 1462 1463 1462 1462 1464 1467 1469 1470 1471 1473 1475
1547 1548 1549 1549 1550 1550 1550 1550 1550 1550 1550 1550 1550 1550 1549 1549 1548 1547 1547 1547 1547 1546 1546 1546 1546 1545 1544 1543 1541 1540 1539 1537 1535 1534 1532 1530 1529 1527 1525 1523 1522 1521 1519 1516 1512 1507 1504 1502 1499 1494 1491 1490 1487 1484 1482 1480 1478 1475 1473 1471 1469 1467 1465 1463 1463 1462 1461 1461 1461 1460 1459 1458 1458 1458 1458 1459 1460 1459 1460 1461 1464 1466 1467 1469 1471
1547 1548 1549 1550 1550 1551 1551 1551 1550 1551 1551 1551 1550 1550 1549 1549 1548 1548 1548 1548 1547 1547 1547 1547 1547 1546 1545 1543 1542 1540 1539 1538 1536 1534 1532 1531 1529 1527 1525 1523 1521 1520 1519 1517 1513 1509 1505 1501 1498 1495 1491 1488 1486 1482 1480 1478 1476 1473 1471 1468 1466 1464 1462 1460 1459 1458 1457 1457 1456 1455 1454 1454 1455 1454 1454 1454 1456 1457 1456 1457 1459 1462 1464 1465 1467
1548 1548 1550 1550 1551 1551 1551 1551 1551 1551 1551 1551 1550 1550 1549 1549 1549 1548 1548 1548 1548 1548 1548 1548 1548 1546 1545 1544 1542 1541 1539 1538 1536 1535 1533 1531 1529 1527 1525 1523 1521 1519 1518 1516 1513 1509 1505 1502 1498 1494 1491 1488 1485 1481 1478 1475 1473 1471 1469 1466 1463 1460 1458 1457 1456 1455 1454 1452 1451 1451 1451 1451 1451 1450 1449 1449 1450 1452 1453 1453 1454 1456 1459 1460 1462
1548 1549 1550 1550 1551 1551 1551 1551 1551 1551 1551 1551 1550 1550 1549 1549 1549 1549 1549 1549 1549 1549 1549 1549 1548 1547 1546 1545 1543 1541 1540 1538 1536 1534 1533 1531 1529 1527 1525 1523 1520 1518 1516 1515 1513 1508 1505 1502 1498 1494 1490 1487 1483 1480 1476 1473 1470 1468 1465 1463 1460 1457 1455 1453 1452 1451 1450 1449 1447 1446 1446 1446 1446 1446 1445 1445 1445 1446 1447 1448 1448 1450 1452 1454 1456
1548 1549 1550 1550 1550 1551 1551 1551 1551 1551 1551 1551 1550 1550 1550 1550 1550 1549 1549 1549 1549 1550 1549 1549 1548 1547 1547 1545 1543 1542 1540 1538 1536 1534 1532 1531 1529 1527 1525 1522 1520 1518 1516 1514 1512 1509 1505 1501 1497 1493 1490 1486 1482 1479 1475 1471 1468 1464 1461 1459 1457 1454 1452 1450 1448 1447 1447 1445 1443 1442 1442 1442 1442 1441 1441 1441 1441 1440 1441 1443 1443 1444 1445 1447 1450
1548 1549 1549 1550 1550 1550 1551 1551 1551 1551 1551 1551 1551 1551 1550 1550 1550 1550 1550 1550 1550 1550 1549 1549 1549 1548 1547 1545 1543 1542 1540 1538 1536 1534 1532 1531 1529 1527 1525 1523 1520 1518 1516 1514 1512 1509 1505 1501 1497 1493 1489 1485 1481 1478 1474 1471 1467 1463 1459 1455 1453 1451 1449 1446 1444 1443 1443 1442 1439 1438 1437 1437 1437 1437 1437 1437 1437 1437 1437 1437 1438 1439 1440 1441 1443
1548 1549 1549 1550 1550 1550 1550 1550 1550 1550 1551 1551 1551 1551 1551 1550 1550 1550 1550 1550 1550 1550 1550 1549 1549 1548 1546 1545 1543 1542 1541 1538 1536 1534 1533 1531 1529 1527 1525 1523 1521 1518 1516 1514 1512 1509 1505 1500 1496 1493 1489 1485 1482 1478 1473 1469 1465 1462 1458 1453 1450 1447 1445 1443 1440 1438 1437 1437 1436 1434 1432 1432 1432 1432 1432 1432 1432 1433 1433 1432 1433 1434 1435 1436 1437
1548 1548 1549 1549 1549 1550 1550 1550 1550 1551 1551 1551 1551 1551 1551 1551 1550 1550 1550 1550 1550 1550 1550 1550 1549 1548 1546 1545 1543 1542 1541 1539 1537 1535 1533 1532 1530 1528 1525 1523 1521 1518 1516 1514 1511 1508 1505 1500 1496 1493 1489 1486 1481 1478 1473 1468 1463 1458 1455 1451 1448 1444 1440 1438 1436 1435 1433 1431 1431 1430 1428 1427 1427 1427 1427 1427 1428 1428 1428 1428 1429 1429 1430 1431 1432
1548 1548 1548 1549 1549 1549 1550 1550 1551 1551 1551 1551 1551 1551 1551 1551 1551 1550 1550 1551 1551 1551 1550 1550 1549 1548 1547 1545 1544 1542 1541 1539 1537 1535 1534 1532 1530 1527 1525 1523 1520 1518 1515 1513 1510 1507 1504 1500 1496 1492 1488 1485 1480 1477 1473 1469 1463 1457 1451 1447 1444 1441 1437 1433 1430 1430 1428 1426 1425 1424 1423 1422 1421 1421 1421 1421 1421 1422 1423 1424 1425 1425 1425 1426 1427
1547 1548 1548 1548 1549 1550 1550 1551 1551 1551 1551 1551 1551 1551 1551 1551 1551 1551 1551 1551 1551 1551 1551 1550 1549 1548 1547 1546 1545 1543 1541 1539 1537 1536 1534 1532 1530 1527 1525 1522 1520 1517 1515 1512 1509 1506 1503 1500 1496 1492 1487 1484 1480 1476 1472 1469 1464 1460 1453 1445 1439 1436 1434 1430 1426 1424 1423 1421 1419 1418 1418 1417 1416 1415 1415 1415 1415 1415 1417 1419 1420 1420 1421 1421 1422
1547 1548 1548 1549 1549 1550 1551 1551 1551 1551 1551 1552 1552 1552 1552 1552 1552 1551 1551 1551 1551 1551 1551 1550 1550 1549 1548 1547 1545 1543 1542 1540 1538 1536 1534 1532 1530 1528 1525 1522 1520 1517 1514 1511 1508 1505 1502 1499 1495 1491 1487 1483 1479 1475 1471 1467 1462 1458 1455 1449 1441 1434 1430 1426 1424 1421 1418 1415 1413 1412 1412 1411 1410 1409 1409 1409 1409 1410 1410 1412 1414 1415 1416 1417 1418
1547 1548 1548 1549 1549 1550 1551 1551 1551 1551 1552 1552 1552 1552 1552 1552 1552 1552 1551 1552 1552 1552 1552 1551 1550 1549 1548 1547 1545 1544 1542 1541 1539 1537 1535 1532 1530 1527 1525 1522 1519 1516 1514 1510 1507 1504 1501 1498 1494 1491 1487 1482 1478 1474 1469 1466 1462 1457 1453 1450 1444 1437 1430 1423 1420 1420 1418 1412 1408 1406 1405 1406 1404 1402 1403 1402 1403 1404 1404 1405 1408 1409 1411 1412 1413
1547 1548 1549 1549 1550 1550 1551 1551 1552 1552 1552 1553 1553 1553 1553 1553 1553 1552 1552 1552 1552 1552 1552 1551 1551 1550 1548 1547 1546 1544 1543 1541 1539 1537 1535 1533 1530 1528 1525 1522 1519 1516 1513 1510 1507 1504 1500 1497 1494 1490 1486 1482 1478 1474 1469 1465 1462 1457 1453 1448 1442 1436 1430 1422 1414 1414 1416 1412 1406 1400 1398 1400 1399 1396 1396 1396 1397 1398 1398 1398 1401 1403 1404 1406 1408
1547 1548 1549 1549 1550 1551 1551 1551 1552 1552 1553 1553 1553 1553 1553 1553 1553 1553 1552 1552 1552 1552 1552 1552 1551 1550 1549 1547 1545 1544 1542 1541 1539 1537 1534 1532 1530 1528 1526 1523 1520 1517 1513 1509 1506 1503 1500 1497 1493 1490 1486 1481 1478 1474 1469 1465 1460 1456 1451 1447 1442 1436 1431 1424 1415 1409 1410 1410 1405 1396 1391 1393 1394 1391 1389 1390 1391 1392 1392 1392 1394 1396 1398 1400 1402
1547 1548 1549 1550 1550 1551 1552 1552 1553 1553 1553 1553 1553 1553 1554 1553 1553 1553 1552 1552 1552 1553 1553 1552 1551 1550 1549 1547 1546 1544 1542 1540 1538 1536 1534 1532 1530 1527 1525 1523 1520 1517 1514 1511 1507 1503 1500 1496 1492 1489 1485 1481 1477 1473 1468 1463 1458 1454 1450 1445 1442 1436 1431 1427 1420 1411 1408 1407 1403 1394 1387 1387 1389 1386 1383 1385 1386 1386 1386 1386 1388 1390 1391 1394 1396
1548 1548 1549 1550 1551 1551 1552 1553 1553 1553 1554 1554 1554 1554 1554 1554 1553 1553 1552 1553 1553 1553 1553 1552 1551 1550 1549 1547 1546 1544 1542 1540 1538 1535 1533 1531 1529 1527 1525 1522 1519 1517 1514 1511 1508 1504 1500 1496 1492 1489 1485 1481 1476 1472 1468 1463 1456 1451 1447 1442 1439 1435 1430 1426 1420 1412 1407 1405 1401 1392 1383 1381 1384 1382 1379 1380 1381 1381 1381 1381 1382 1383 1384 1387 1390
1548 1549 1549 1550 1551 1552 1552 1553 1554 1554 1554 1554 1554 1554 1554 1554 1553 1553 1553 1553 1553 1553 1552 1552 1551 1549 1548 1547 1545 1543 1541 1539 1537 1535 1533 1530 1528 1526 1523 1521 1518 1515 1512 1509 1506 1503 1500 1497 1493 1489 1485 1481 1477 1471 1467 1463 1457 1451 1445 1440 1435 1431 1427 1422 1417 1410 1405 1402 1399 1392 1381 1377 1380 1379 1375 1376 1376 1376 1376 1376 1376 1377 1378 1380 1383
1548 1549 1550 1551 1551 1552 1553 1553 1554 1554 1554 1554 1554 1554 1554 1554 1553 1553 1553 1553 1553 1553 1552 1552 1550 1549 1548 1546 1545 1543 1541 1539 1537 1535 1532 1530 1528 1525 1522 1520 1517 1514 1511 1508 1505 1502 1499 1497 1493 1489 1485 1481 1476 1471 1466 1461 1456 1451 1445 1440 1434 1428 1422 1417 1412 1407 1402 1399 1398 1392 1381 1374 1377 1376 1373 1373 1372 1371 1371 1372 1371 1372 1373 1374 1376
1548 1549 1550 1551 1552 1552 1553 1554 1555 1555 1554 1554 1554 1554 1554 1554 1554 1553 1553 1553 1553 1552 1552 1551 1550 1549 1547 1546 1544 1543 1541 1539 1537 1535 1532 1530 1528 1525 1522 1519 1516 1513 1510 1507 1504 1501 1499 1496 1492 1488 1484 1480 1475 1470 1465 1460 1454 1448 1443 1437 1432 1426 1419 1413 1407 1403 1398 1394 1393 1390 1381 1374 1374 1374 1370 1369 1368 1366 1366 1367 1367 1367 1368 1369 1371
1548 1549 1550 1551 1552 1553 1554 1554 1555 1555 1554 1554 1554 1554 1554 1554 1554 1554 1553 1553 1552 1552 1552 1551 1550 1549 1547 1546 1544 1542 1541 1539 1536 1535 1533 1530 1527 1524 1521 1518 1515 1512 1509 1506 1503 1501 1498 1495 1491 1487 1483 1478 1474 1469 1464 1459 1453 1446 1440 1433 1428 1423 1416 1410 1404 1399 1394 1390 1388 1386 1381 1374 1373 1372 1369 1366 1365 1363 1362 1362 1363 1363 1363 1365 1367
1548 1549 1550 1551 1552 1553 1554 1555 1555 1555 1555 1554 1554 1554 1554 1554 1554 1553 1553 1553 1552 1552 1551 1551 1550 1548 1547 1546 1544 1542 1540 1538 1536 1535 1532 1530 1527 1524 1520 1517 1514 1511 1507 1504 1501 1499 1496 1493 1489 1486 1481 1477 1472 1467 1462 1457 1451 1446 1439 1433 1426 1421 1415 1408 1402 1396 1389 1386 1385 1384 1379 1373 1371 1370 1368 1363 1360 1359 1359 1359 1359 1359 1360 1362 1364
1548 1549 1551 1552 1553 1554 1555 1555 1555 1555 1555 1555 1555 1555 1554 1554 1554 1553 1553 1553 1552 1552 1551 1551 1549 1548 1547 1545 1544 1542 1540 1538 1536 1535 1532 1530 1527 1524 1520 1517 1514 1510 1507 1504 1501 1498 1494 1491 1487 1483 1479 1475 1470 1466 1461 1455 1450 1444 1439 1433 1426 1419 1413 1407 1402 1395 1386 1381 1382 1381 1376 1371 1369 1367 1367 1363 1357 1354 1355 1356 1356 1356 1357 1358 1360